Terminal Aerodrome Forecast
Issued by NWS Columbia, SC

Home | Current Version | Previous Version | Text Only | Print | Product List | Glossary On
Versions: 1 2 3 4 5 6 7 8 9 10 11 12 13 14 15 16 17 18 19 20 21 22 23 24 25 26 27 28 29 30
000
FTUS42 KCAE 222300
TAFCAE
TAF
KCAE 222329Z 2300/2324 06005KT 5SM -RA BR OVC009
     FM230300 06005KT 2SM -RA BR OVC004
     FM231800 07005KT 2SM RA BR OVC007=

USA.gov is the U.S. government's official web portal to all federal, state and local government web resources and services.